Date_and_time,latitude,longitude,wind_speed,RelWindDirFrom,WindDirFrom,air_pressure,air_temperature,relative_humidity,Temp,platform_speed_wrt_ground,air_pressure_at_mean_sea_level,platform_orientation
2019-03-20 23:50,50.630435,-96.98076,8.1,10.4,182,992.10,3.1,74,1.02,0.0,1019.53,131.7
2019-03-21 00:00,50.630435,-96.9807616666667,8.7,11.2,182,992.03,3.4,74,1.03,0.0,1019.46,131.7
2019-03-21 00:10,50.630435,-96.9807633333333,8.0,9.8,188,992.06,3.2,75,1.04,0.0,1019.49,131.7
2019-03-21 00:20,50.6304366666667,-96.9807633333333,7.8,9.3,189,991.94,3.0,75,1.05,0.0,1019.45,131.7
2019-03-21 00:30,50.6304366666667,-96.9807633333333,8.2,10.1,190,991.82,2.7,77,1.04,0.0,1019.33,131.7
2019-03-21 00:40,50.6304366666667,-96.980775,7.8,9.3,186,991.72,2.4,80,1.04,0.0,1019.24,131.7
2019-03-21 00:50,50.6304416666667,-96.9807716666667,7.4,8.6,190,991.69,2.0,82,1.05,0.0,1019.30,131.7
2019-03-21 01:00,50.6304383333333,-96.980765,6.7,8.1,194,991.62,2.0,83,1.06,0.0,1019.26,345.5
2019-03-21 01:10,50.6304366666667,-96.9807616666667,6.8,8.1,203,991.51,2.0,83,1.06,0.0,1019.18,345.5
2019-03-21 01:20,50.6304366666667,-96.980765,6.9,8.1,203,991.36,2.3,81,1.06,0.0,1019.07,345.5
2019-03-21 01:30,50.6304383333333,-96.980765,6.3,7.5,203,991.38,2.4,80,1.06,0.0,1019.11,345.5
2019-03-21 01:40,50.6304383333333,-96.9807616666667,6.4,8.0,203,991.35,2.4,80,1.06,0.0,1019.03,345.5
2019-03-21 01:50,50.6304383333333,-96.9807633333333,6.1,7.3,203,991.30,2.3,80,1.06,0.0,1018.97,345.5
2019-03-21 02:00,50.6304366666667,-96.980765,6.6,8.1,205,991.21,2.2,80,1.05,0.0,1018.89,311.7
2019-03-21 02:10,50.6304283333333,-96.9807933333333,7.3,9.4,217,991.28,2.2,79,1.05,0.0,1018.97,311.7
2019-03-21 02:20,50.630435,-96.9807783333333,7.5,9.8,216,991.25,2.2,79,1.05,0.0,1018.96,311.7
2019-03-21 02:30,50.6304316666667,-96.980765,7.4,9.3,202,991.10,2.1,79,1.05,0.0,1018.83,311.7
2019-03-21 02:40,50.6304366666667,-96.9807683333333,7.6,10.0,198,990.95,2.0,80,1.06,0.0,1018.70,311.7
2019-03-21 02:50,50.630435,-96.9807683333333,7.7,10.2,203,990.79,1.9,81,1.06,0.0,1018.53,311.7
2019-03-21 03:00,50.63044,-96.9807716666667,7.2,9.5,197,990.45,1.7,83,1.06,0.0,1018.20,305.3
2019-03-21 03:10,50.6304416666667,-96.9807733333333,7.3,9.3,193,990.21,1.5,85,1.06,0.0,1017.95,305.3
2019-03-21 03:20,50.6304433333333,-96.98077,7.2,9.2,200,990.17,1.5,86,1.05,0.0,1017.91,305.3
2019-03-21 03:30,50.630435,-96.9807583333333,7.4,9.4,197,989.99,1.4,87,1.05,0.0,1017.72,305.3
2019-03-21 03:40,50.6304466666667,-96.9807733333333,7.8,9.5,200,989.78,1.3,88,1.04,0.0,1017.51,305.3
2019-03-21 03:50,50.6304466666667,-96.9807666666667,8.3,10.0,201,989.66,1.2,89,1.03,0.0,1017.40,305.3
2019-03-21 04:00,50.6304383333333,-96.9807833333333,8.6,11.7,197,989.53,0.9,91,1.03,0.0,1017.28,270.0
2019-03-21 04:10,50.6304166666667,-96.9807416666667,8.2,9.9,193,989.39,0.8,92,1.04,0.0,1017.14,270.0
2019-03-21 04:20,50.6304383333333,-96.9807666666667,7.8,9.9,192,989.27,0.6,94,1.03,0.0,1017.03,270.0
2019-03-21 04:30,50.6304366666667,-96.980765,9.5,11.5,191,989.06,0.5,95,1.03,0.0,1016.83,270.0
2019-03-21 04:40,50.6304416666667,-96.9807766666667,9.3,11.3,192,988.93,0.4,97,1.03,0.0,1016.70,270.0
2019-03-21 04:50,50.6304083333333,-96.9807533333333,9.6,11.8,192,988.80,0.3,98,1.03,0.0,1016.59,270.0
2019-03-21 05:00,50.630425,-96.9807616666667,9.5,12.3,192,988.65,0.2,99,1.04,0.0,1016.45,138.7
2019-03-21 05:10,50.6304266666667,-96.98076,9.0,11.2,197,988.63,0.2,99,1.03,0.0,1016.43,138.7
2019-03-21 05:20,50.6304283333333,-96.98076,9.0,11.3,199,988.47,0.1,99,1.03,0.0,1016.28,138.7
2019-03-21 05:30,50.6304283333333,-96.9807633333333,9.2,11.6,200,988.33,-0.1,99,1.03,0.0,1016.14,138.7
2019-03-21 05:40,50.6304283333333,-96.9807666666667,9.7,12.9,203,988.07,-0.2,99,1.03,0.0,1015.89,138.7
2019-03-21 05:50,50.6304133333333,-96.98078,9.2,10.9,206,987.94,-0.2,99,1.03,0.0,1015.77,138.7
2019-03-21 06:00,50.630415,-96.9808016666667,8.4,10.0,205,987.76,-0.2,99,1.03,0.0,1015.59,213.4
2019-03-21 06:10,50.6304233333333,-96.9807883333333,6.7,8.3,205,987.70,-0.2,99,1.03,0.0,1015.54,213.4
2019-03-21 06:20,50.63043,-96.98078,6.1,8.0,204,987.63,-0.0,99,1.03,0.0,1015.46,213.4
2019-03-21 06:30,50.6304316666667,-96.9807783333333,7.1,8.9,206,987.44,0.3,99,1.03,0.0,1015.26,213.4
2019-03-21 06:40,50.63043,-96.9807783333333,7.5,10.1,211,987.38,0.7,97,1.03,0.0,1015.17,213.4
2019-03-21 06:50,50.6304316666667,-96.98078,7.5,10.2,216,987.23,0.8,97,1.02,0.0,1015.03,213.4
2019-03-21 07:00,50.6304316666667,-96.9807783333333,8.4,10.7,217,987.00,0.7,97,1.02,0.0,1014.80,360.0
2019-03-21 07:10,50.6304333333333,-96.9807766666667,8.3,11.3,217,986.80,0.7,98,1.02,0.0,1014.59,360.0
2019-03-21 07:20,50.630445,-96.98079,7.6,10.2,218,986.72,0.9,97,1.02,0.0,1014.51,360.0
2019-03-21 07:30,50.6304433333333,-96.9807816666667,8.5,11.7,218,986.53,1.0,97,1.02,0.0,1014.32,360.0
2019-03-21 07:40,50.6304416666667,-96.9807816666667,9.2,12.9,224,986.47,1.0,97,1.02,0.0,1014.25,360.0
2019-03-21 07:50,50.6304416666667,-96.9807766666667,9.7,12.9,225,986.35,1.1,97,1.01,0.0,1014.13,360.0
2019-03-21 08:00,50.6304433333333,-96.9807783333333,8.5,11.7,231,986.30,1.1,98,1.01,0.0,1014.08,307.0
2019-03-21 08:10,50.6304416666667,-96.980775,8.7,11.3,235,986.29,1.1,98,1.02,0.0,1014.06,307.0
2019-03-21 08:20,50.6304416666667,-96.980775,8.7,11.1,231,986.15,1.0,98,1.01,0.0,1013.89,307.0
2019-03-21 08:30,50.63044,-96.980775,9.0,12.3,237,986.13,1.0,98,1.01,0.0,1013.85,307.0
2019-03-21 08:40,50.630435,-96.9807633333333,9.9,14.5,241,986.05,1.2,97,1.00,0.0,1013.76,307.0
2019-03-21 08:50,50.6304683333333,-96.9807916666667,9.7,14.2,241,986.02,1.5,95,1.01,0.0,1013.72,307.0
2019-03-21 09:00,50.6304416666667,-96.9807716666667,8.0,11.6,244,985.99,1.5,95,1.00,0.0,1013.68,39.5
2019-03-21 09:10,50.6304416666667,-96.9807733333333,8.1,12.5,251,985.97,1.5,94,1.00,0.0,1013.65,39.5
2019-03-21 09:20,50.63044,-96.980775,8.8,13.0,253,986.06,1.7,93,1.00,0.0,1013.74,39.5
2019-03-21 09:30,50.6304383333333,-96.9807733333333,7.3,10.4,254,986.10,1.8,92,1.00,0.0,1013.77,39.5
2019-03-21 09:40,50.6304383333333,-96.9807716666667,6.7,10.9,254,986.10,1.8,91,1.00,0.0,1013.77,39.5
2019-03-21 09:50,50.6304383333333,-96.98077,7.3,10.3,257,986.14,2.0,90,0.99,0.0,1013.79,39.5
2019-03-21 10:00,50.6304533333333,-96.9807766666667,7.1,11.2,257,986.11,2.1,89,1.00,0.0,1013.76,32.1
2019-03-21 10:10,50.6304533333333,-96.980775,6.8,9.6,264,986.12,2.1,88,0.99,0.0,1013.78,32.1
2019-03-21 10:20,50.6304533333333,-96.9807766666667,7.3,10.5,259,986.13,2.2,87,0.98,0.0,1013.79,32.1
2019-03-21 10:30,50.6304516666667,-96.980775,7.3,9.9,259,986.24,2.1,87,0.98,0.0,1013.88,32.1
2019-03-21 10:40,50.630435,-96.9807666666667,6.9,10.2,267,986.32,2.1,87,0.98,0.0,1013.95,32.1
2019-03-21 10:50,50.6304416666667,-96.9807683333333,6.8,11.5,269,986.34,2.2,86,0.98,0.0,1013.97,32.1
2019-03-21 11:00,50.6304416666667,-96.98077,7.2,9.9,274,986.32,2.3,85,0.97,0.0,1013.95,90.0
2019-03-21 11:10,50.6304433333333,-96.9807716666667,7.6,11.0,280,986.43,2.4,84,0.97,0.0,1014.05,90.0
2019-03-21 11:20,50.63044,-96.98077,8.2,12.0,283,986.43,2.6,83,0.97,0.0,1014.03,90.0
2019-03-21 11:30,50.63044,-96.98077,9.1,14.1,291,986.59,2.7,81,0.97,0.0,1014.18,90.0
2019-03-21 11:40,50.6304366666667,-96.9807633333333,9.4,13.7,292,986.71,2.8,80,0.97,0.0,1014.30,90.0
2019-03-21 11:50,50.63043,-96.980755,8.5,11.4,297,986.90,2.7,80,0.97,0.0,1014.49,90.0
2019-03-21 12:00,50.6304283333333,-96.98076,9.1,13.6,307,987.09,2.8,78,0.97,0.0,1014.68,147.5
2019-03-21 12:10,50.6304316666667,-96.9807666666667,10.1,15.1,312,987.24,3.1,76,0.97,0.0,1014.82,147.5
2019-03-21 12:20,50.6304333333333,-96.9807683333333,11.6,18.8,315,987.35,3.3,75,0.96,0.0,1014.92,147.5
2019-03-21 12:30,50.6304366666667,-96.980765,12.2,19.8,320,987.55,3.4,74,0.96,0.0,1015.12,147.5
2019-03-21 12:40,50.6304366666667,-96.9807666666667,12.3,18.1,319,987.78,3.5,72,0.96,0.0,1015.35,147.5
2019-03-21 12:50,50.6304366666667,-96.9807683333333,12.0,17.3,320,988.01,3.4,72,0.96,0.0,1015.59,147.5
2019-03-21 13:00,50.6304366666667,-96.9807683333333,11.3,18.3,322,988.24,3.3,72,0.96,0.0,1015.82,156.5
2019-03-21 13:10,50.6304366666667,-96.9807666666667,11.9,16.8,324,988.38,3.3,72,0.95,0.0,1015.96,156.5
2019-03-21 13:20,50.6304366666667,-96.9807666666667,11.9,16.9,324,988.60,3.4,71,0.93,0.0,1016.17,156.5
2019-03-21 13:30,50.6304383333333,-96.980765,11.4,16.1,321,988.67,3.3,72,0.93,0.0,1016.24,156.5
2019-03-21 13:40,50.6304383333333,-96.980765,12.0,17.6,322,988.77,3.4,71,0.93,0.0,1016.35,156.5
2019-03-21 13:50,50.6304383333333,-96.980765,11.9,17.7,318,988.95,3.7,69,0.93,0.0,1016.51,156.5
2019-03-21 14:00,50.6304383333333,-96.980765,11.7,17.1,318,989.14,3.8,69,0.93,0.0,1016.69,90.0
2019-03-21 14:10,50.6304383333333,-96.980765,11.3,16.1,319,989.37,3.9,69,0.94,0.0,1016.92,90.0
2019-03-21 14:20,50.6304383333333,-96.980765,11.8,19.4,324,989.58,4.0,68,0.94,0.0,1017.12,90.0
2019-03-21 14:30,50.6304383333333,-96.980765,13.4,20.9,327,989.61,4.3,66,0.94,0.0,1017.13,90.0
2019-03-21 14:40,50.6304383333333,-96.980765,12.1,20.3,331,989.78,4.5,65,0.95,0.0,1017.30,90.0
2019-03-21 14:50,50.6304383333333,-96.980765,10.8,17.5,329,989.87,4.6,64,0.95,0.0,1017.39,90.0
2019-03-21 15:00,50.6304383333333,-96.9807666666667,11.0,17.1,329,990.00,4.8,63,0.94,0.0,1017.52,360.0
2019-03-21 15:10,50.6304383333333,-96.9807666666667,10.2,14.6,326,990.15,5.0,61,0.94,0.0,1017.65,360.0
2019-03-21 15:20,50.6304383333333,-96.9807666666667,10.9,15.6,322,990.17,5.2,60,0.94,0.0,1017.66,360.0
2019-03-21 15:30,50.6304383333333,-96.9807666666667,10.1,16.3,321,990.33,5.5,59,0.94,0.0,1017.80,360.0
2019-03-21 15:40,50.6304383333333,-96.9807666666667,9.9,16.4,321,990.47,5.7,58,0.94,0.0,1017.93,360.0
2019-03-21 15:50,50.6304383333333,-96.9807666666667,9.2,14.5,324,990.72,5.9,57,0.94,0.0,1018.17,360.0
2019-03-21 16:00,50.6304383333333,-96.9807666666667,9.0,12.6,321,990.80,6.1,56,0.94,0.0,1018.24,360.0
2019-03-21 16:10,50.63044,-96.9807683333333,8.0,11.9,317,990.93,6.2,56,0.95,0.0,1018.36,360.0
2019-03-21 16:20,50.63044,-96.9807683333333,7.3,10.8,316,991.01,6.2,56,0.96,0.0,1018.43,360.0
2019-03-21 16:30,50.63044,-96.9807683333333,8.6,12.0,317,991.06,6.2,56,0.96,0.0,1018.47,360.0
2019-03-21 16:40,50.63045,-96.98078,7.7,11.4,322,991.17,6.3,55,0.96,0.0,1018.57,360.0
2019-03-21 16:50,50.6304533333333,-96.98077,8.7,12.7,326,991.31,6.5,55,0.96,0.0,1018.70,360.0
2019-03-21 17:00,50.6304533333333,-96.98077,10.2,15.8,338,991.27,6.5,55,0.96,0.0,1018.64,38.0
2019-03-21 17:10,50.6304516666667,-96.980765,11.5,18.1,335,991.26,6.5,54,0.96,0.0,1018.63,38.0
2019-03-21 17:20,50.6304516666667,-96.980765,9.9,14.8,327,991.35,6.7,53,0.96,0.0,1018.70,38.0
2019-03-21 17:30,50.6304283333333,-96.98075,10.9,17.8,336,991.43,6.7,53,0.96,0.0,1018.77,38.0
2019-03-21 17:40,50.6304366666667,-96.980755,11.0,18.9,334,991.46,6.7,53,0.96,0.0,1018.79,38.0
2019-03-21 17:50,50.6304433333333,-96.9807983333333,10.9,17.7,334,991.56,6.8,53,0.96,0.0,1018.87,38.0
2019-03-21 18:00,50.6304433333333,-96.9807616666667,11.3,16.9,337,991.55,6.8,53,0.97,0.0,1018.86,90.0
2019-03-21 18:10,50.6304433333333,-96.9807633333333,9.2,13.7,344,991.60,6.7,55,0.97,0.0,1018.92,90.0
2019-03-21 18:20,50.630445,-96.9807616666667,8.7,11.7,352,991.67,6.5,56,0.97,0.0,1018.99,90.0
2019-03-21 18:30,50.6304433333333,-96.98076,8.0,12.7,348,991.71,6.6,55,0.97,0.0,1019.03,90.0
2019-03-21 18:40,50.6304783333333,-96.9808016666667,6.8,11.2,322,991.80,7.2,52,0.97,0.0,1019.08,90.0
2019-03-21 18:50,50.6304466666667,-96.9807533333333,8.8,12.8,315,991.71,7.6,51,0.97,0.0,1018.97,90.0
2019-03-21 19:00,50.6304483333333,-96.9807666666667,7.2,11.5,307,991.74,7.7,50,0.97,0.0,1019.00,38.0
2019-03-21 19:10,50.63045,-96.980775,7.7,11.9,309,991.65,7.9,50,0.98,0.0,1018.89,38.0
2019-03-21 19:20,50.63045,-96.9807733333333,9.2,14.4,320,991.69,7.9,50,0.98,0.0,1018.92,38.0
2019-03-21 19:30,50.63045,-96.9807733333333,9.5,15.3,320,991.75,7.9,50,0.99,0.0,1018.98,38.0
2019-03-21 19:40,50.6304316666667,-96.980755,11.2,17.6,316,991.66,8.1,49,1.00,0.0,1018.88,38.0
2019-03-21 19:50,50.630445,-96.980765,12.8,18.7,318,991.58,8.1,47,1.00,0.0,1018.80,38.0
2019-03-21 20:00,50.6304433333333,-96.9807666666667,13.0,20.2,313,991.56,8.1,47,1.00,0.0,1018.78,360.0
2019-03-21 20:10,50.63044,-96.9807666666667,12.3,18.7,309,991.68,8.2,47,1.01,0.0,1018.91,360.0
2019-03-21 20:20,50.6304416666667,-96.9807533333333,12.4,17.6,308,991.71,8.2,47,1.01,0.0,1018.93,360.0
2019-03-21 20:30,50.6304416666667,-96.9807533333333,11.0,16.5,309,991.80,8.3,46,1.01,0.0,1018.99,360.0
2019-03-21 20:40,50.6304433333333,-96.9807616666667,13.1,19.1,320,991.77,8.2,45,1.02,0.0,1018.94,360.0
2019-03-21 20:50,50.6304416666667,-96.98076,12.3,20.9,315,991.84,8.1,45,1.02,0.0,1019.02,360.0
2019-03-21 21:00,50.6304416666667,-96.9807633333333,12.8,18.7,317,991.89,8.2,45,1.03,0.0,1019.06,270.0
2019-03-21 21:10,50.6304416666667,-96.980765,11.7,18.2,320,992.02,8.2,45,1.04,0.0,1019.19,270.0
2019-03-21 21:20,50.6304416666667,-96.9807666666667,12.7,18.8,320,992.04,8.2,45,1.05,0.0,1019.21,270.0
2019-03-21 21:30,50.6304416666667,-96.9807683333333,11.2,15.7,315,992.18,8.2,45,1.06,0.0,1019.34,270.0
2019-03-21 21:40,50.6304416666667,-96.9807683333333,11.6,17.4,318,992.18,8.3,46,1.07,0.0,1019.34,270.0
2019-03-21 21:50,50.6304416666667,-96.9807683333333,10.4,15.5,318,992.27,8.2,46,1.06,0.0,1019.44,270.0
2019-03-21 22:00,50.6304416666667,-96.9807683333333,11.7,17.8,321,992.32,8.2,46,1.07,0.0,1019.49,360.0
2019-03-21 22:10,50.630435,-96.980715,11.8,21.2,321,992.39,8.0,46,1.08,0.0,1019.57,360.0
2019-03-21 22:20,50.63044,-96.980765,12.9,18.7,320,992.39,7.8,45,1.08,0.0,1019.57,360.0
2019-03-21 22:30,50.63044,-96.980765,10.8,15.7,319,992.67,7.7,46,1.08,0.0,1019.86,360.0
2019-03-21 22:40,50.63044,-96.9807666666667,9.4,15.4,314,992.88,7.5,47,1.08,0.0,1020.10,360.0
2019-03-21 22:50,50.6304383333333,-96.9807666666667,8.5,12.9,312,993.00,7.5,48,1.09,0.0,1020.22,360.0
2019-03-21 23:00,50.6304383333333,-96.980765,9.1,13.2,312,993.06,7.4,47,1.09,0.0,1020.28,90.0
2019-03-21 23:10,50.6304383333333,-96.9807666666667,8.6,13.1,310,993.14,7.3,47,1.10,0.0,1020.37,90.0
2019-03-21 23:20,50.6304383333333,-96.9807683333333,7.3,10.9,316,993.30,7.2,47,1.11,0.0,1020.53,90.0
2019-03-21 23:30,50.63044,-96.9807666666667,7.0,13.6,312,993.42,7.2,47,1.11,0.0,1020.67,90.0
2019-03-21 23:40,50.63044,-96.9807666666667,7.8,11.1,311,993.54,7.0,48,1.11,0.0,1020.80,90.0
2019-03-21 23:50,50.63044,-96.980765,7.9,12.1,312,993.70,6.6,48,1.11,0.0,1020.98,90.0
